OneWeb SL0399

operational
NORAD ID: 50479 Int'l Des: 2021-132 Owner: ONEWEBN Country: UK Constellation: oneweb
LEOCIRCULARPOLARONEWEB_TYPE

About OneWeb SL0399

Description loading...

Live Position

Loading 3D Globe...

Upcoming Passes

Altitude History

Altitude vs Time

uPlot chart will show altitude changes over time

Two-Line Element Set

1 50479U 21132L 26035.97525433 -.00000496 00000-0 -14365-2 0 9990
2 50479 87.8818 47.3695 0002140 78.2587 281.8781 13.11416920198275
Epoch: Feb 4, 2026 • Age: 11 hours

Current Status

Altitude 1219.1 km
Velocity 7.25 km/s
Sub-Earth Point 16.53°N, 115.17°E
Launch Date Dec 27, 2021
Age 4.1 years
Type internet

Technical Details

Classification Payload
Mass 148.00 kg
Dry Mass 140.00 kg
Total Mass 148.00 kg
Length 1.30 m
Diameter 1.00 m
Span 5.00 m
Shape Trapezoid+2 pan
Manufacturer ONEWUS
Bus Type ARROW
Phase Status In Orbit
Owner/State ONEWEBN/UK

Large Constellations

Loading constellations...